• In Kazakhstan
  • List of Countries
  • For 7 days
  • Water Temperature
  • Satellite Maps
  • Weather Map
  • News
  • Weather Widgets
  • user-avatar
    Login

    Hourly Weather Shaki

    Today, 24 October, Tuesday

    Time Temperature Precipitation Wind Pressure Humidity
    00:00 +13°C° 0 mm 3 mps 738 mmHg 75%
    01:00 +13°C° 0 mm 3 mps 738 mmHg 74%
    02:00 +14°C° 0 mm 2 mps 738 mmHg 72%
    03:00 +14°C° 0 mm 2 mps 738 mmHg 71%
    04:00 +13°C° 0 mm 2 mps 738 mmHg 70%
    05:00 +13°C° 0 mm 1 mps 738 mmHg 70%
    06:00 +13°C° 0 mm 1 mps 738 mmHg 69%
    07:00 +14°C° 0 mm 1 mps 738 mmHg 64%
    08:00 +15°C° 0 mm 1 mps 738 mmHg 59%
    09:00 +17°C° 0 mm 2 mps 738 mmHg 54%
    10:00 +18°C° 0 mm 2 mps 738 mmHg 50%
    11:00 +19°C° 0 mm 2 mps 737 mmHg 46%
    12:00 +20°C° 0 mm 2 mps 737 mmHg 41%
    13:00 +20°C° 0 mm 2 mps 737 mmHg 40%
    14:00 +20°C° 0 mm 2 mps 736 mmHg 38%
    15:00 +20°C° 0 mm 2 mps 736 mmHg 37%
    16:00 +20°C° 0 mm 1 mps 737 mmHg 41%
    17:00 +19°C° 0 mm 1 mps 737 mmHg 44%
    18:00 +16°C° 0 mm 1 mps 737 mmHg 48%
    19:00 +16°C° 0 mm 1 mps 737 mmHg 48%
    20:00 +15°C° 0 mm 1 mps 737 mmHg 48%
    21:00 +15°C° 0 mm 1 mps 738 mmHg 48%
    22:00 +15°C° 0 mm 1 mps 738 mmHg 49%
    23:00 +15°C° 0 mm 1 mps 738 mmHg 50%

    Tomorrow, 25 October, Wednesday

    Time Temperature Precipitation Wind Pressure Humidity
    00:00 +14°C° 0 mm 1 mps 738 mmHg 51%
    01:00 +14°C° 0 mm 1 mps 737 mmHg 52%
    02:00 +14°C° 0 mm 1 mps 737 mmHg 54%
    03:00 +14°C° 0 mm 1 mps 737 mmHg 55%
    04:00 +14°C° 0 mm 2 mps 737 mmHg 55%
    05:00 +14°C° 0 mm 2 mps 737 mmHg 54%
    06:00 +14°C° 0 mm 2 mps 737 mmHg 54%
    07:00 +16°C° 0 mm 2 mps 738 mmHg 48%
    08:00 +18°C° 0 mm 2 mps 738 mmHg 43%
    09:00 +20°C° 0 mm 2 mps 738 mmHg 37%
    10:00 +21°C° 0 mm 2 mps 738 mmHg 34%
    11:00 +23°C° 0 mm 2 mps 737 mmHg 30%
    12:00 +24°C° 0 mm 2 mps 737 mmHg 27%
    13:00 +25°C° 0 mm 2 mps 737 mmHg 26%
    14:00 +25°C° 0 mm 2 mps 736 mmHg 25%
    15:00 +25°C° 0 mm 2 mps 736 mmHg 24%
    16:00 +23°C° 0 mm 2 mps 736 mmHg 27%
    17:00 +21°C° 0 mm 2 mps 736 mmHg 30%
    18:00 +20°C° 0 mm 1 mps 736 mmHg 33%
    19:00 +19°C° 0 mm 1 mps 736 mmHg 34%
    20:00 +18°C° 0 mm 2 mps 737 mmHg 35%
    21:00 +18°C° 0 mm 2 mps 737 mmHg 37%
    22:00 +17°C° 0 mm 2 mps 736 mmHg 38%
    23:00 +17°C° 0 mm 2 mps 736 mmHg 40%

    Day after tomorrow, 26 October, Thursday

    Time Temperature Precipitation Wind Pressure Humidity
    00:00 +17°C° 0 mm 2 mps 736 mmHg 41%
    01:00 +17°C° 0 mm 2 mps 735 mmHg 41%
    02:00 +17°C° 0 mm 2 mps 735 mmHg 41%
    03:00 +17°C° 0 mm 3 mps 735 mmHg 40%
    04:00 +17°C° 0 mm 3 mps 735 mmHg 40%
    05:00 +17°C° 0 mm 3 mps 735 mmHg 39%
    06:00 +16°C° 0 mm 3 mps 735 mmHg 38%
    07:00 +18°C° 0 mm 3 mps 735 mmHg 35%
    08:00 +20°C° 0 mm 3 mps 735 mmHg 31%
    09:00 +22°C° 0 mm 4 mps 735 mmHg 28%
    10:00 +25°C° 0 mm 4 mps 735 mmHg 26%
    11:00 +26°C° 0 mm 4 mps 735 mmHg 24%
    12:00 +27°C° 0 mm 5 mps 735 mmHg 22%
    13:00 +27°C° 0 mm 5 mps 735 mmHg 22%
    14:00 +27°C° 0 mm 4 mps 735 mmHg 23%
    15:00 +27°C° 0 mm 4 mps 735 mmHg 23%
    16:00 +25°C° 0 mm 3 mps 735 mmHg 25%
    17:00 +22°C° 0 mm 3 mps 735 mmHg 27%
    18:00 +20°C° 0 mm 2 mps 735 mmHg 29%
    19:00 +19°C° 0 mm 2 mps 736 mmHg 30%
    20:00 +19°C° 0 mm 2 mps 736 mmHg 31%
    21:00 +18°C° 0 mm 2 mps 736 mmHg 32%
    22:00 +17°C° 0 mm 2 mps 736 mmHg 37%
    23:00 +16°C° 0 mm 2 mps 736 mmHg 42%

    27 October, Friday

    Time Temperature Precipitation Wind Pressure Humidity
    00:00 +16°C° 0 mm 2 mps 736 mmHg 47%
    01:00 +15°C° 0 mm 2 mps 737 mmHg 52%
    02:00 +15°C° 0 mm 2 mps 737 mmHg 57%
    03:00 +14°C° 0 mm 2 mps 737 mmHg 61%
    04:00 +14°C° 0 mm 1 mps 737 mmHg 64%
    05:00 +13°C° 0 mm 1 mps 737 mmHg 67%
    06:00 +13°C° 0 mm 1 mps 737 mmHg 70%
    07:00 +14°C° 0 mm 1 mps 738 mmHg 67%
    08:00 +15°C° 0 mm 1 mps 738 mmHg 63%
    09:00 +17°C° 0 mm 2 mps 738 mmHg 60%
    10:00 +17°C° 0 mm 2 mps 738 mmHg 56%
    11:00 +18°C° 0 mm 2 mps 738 mmHg 52%
    12:00 +19°C° 0 mm 3 mps 738 mmHg 48%
    13:00 +19°C° 0 mm 3 mps 737 mmHg 47%
    14:00 +19°C° 0 mm 3 mps 737 mmHg 46%
    15:00 +19°C° 0 mm 3 mps 737 mmHg 45%
    16:00 +18°C° 0 mm 2 mps 737 mmHg 50%
    17:00 +17°C° 0 mm 2 mps 737 mmHg 54%
    18:00 +15°C° 0 mm 1 mps 738 mmHg 59%
    19:00 +15°C° 0 mm 1 mps 738 mmHg 60%
    20:00 +15°C° 0 mm 2 mps 738 mmHg 62%
    21:00 +14°C° 0 mm 2 mps 738 mmHg 64%
    22:00 +14°C° 0 mm 2 mps 738 mmHg 67%
    23:00 +13°C° 0 mm 2 mps 737 mmHg 70%

    28 October, Saturday

    Time Temperature Precipitation Wind Pressure Humidity
    00:00 +13°C° 0 mm 2 mps 737 mmHg 73%
    01:00 +13°C° 0 mm 2 mps 737 mmHg 74%
    02:00 +13°C° 0 mm 1 mps 737 mmHg 76%
    03:00 +12°C° 0 mm 1 mps 736 mmHg 77%
    04:00 +12°C° 0 mm 1 mps 736 mmHg 77%
    05:00 +12°C° 0 mm 1 mps 736 mmHg 77%
    06:00 +12°C° 0 mm 1 mps 736 mmHg 78%
    07:00 +13°C° 0 mm 1 mps 736 mmHg 71%
    08:00 +15°C° 0 mm 2 mps 736 mmHg 65%
    09:00 +16°C° 0 mm 2 mps 735 mmHg 58%
    10:00 +17°C° 0 mm 2 mps 735 mmHg 53%
    11:00 +19°C° 0 mm 3 mps 734 mmHg 47%
    12:00 +20°C° 0 mm 3 mps 734 mmHg 41%
    13:00 +20°C° 0 mm 3 mps 733 mmHg 40%
    14:00 +21°C° 0 mm 3 mps 733 mmHg 38%
    15:00 +21°C° 0 mm 3 mps 732 mmHg 36%
    16:00 +20°C° 0 mm 3 mps 732 mmHg 38%
    17:00 +19°C° 0 mm 2 mps 733 mmHg 40%
    18:00 +18°C° 0 mm 2 mps 733 mmHg 43%
    19:00 +18°C° 0.2 mm 2 mps 732 mmHg 45%
    20:00 +18°C° 0.2 mm 3 mps 732 mmHg 48%
    21:00 +18°C° 0.2 mm 3 mps 732 mmHg 51%
    22:00 +18°C° 0.5 mm 3 mps 732 mmHg 54%
    23:00 +18°C° 0.5 mm 3 mps 731 mmHg 57%

    29 October, Sunday

    Time Temperature Precipitation Wind Pressure Humidity
    00:00 +17°C° 0.5 mm 3 mps 731 mmHg 60%
    01:00 +17°C° 0.2 mm 3 mps 730 mmHg 61%
    02:00 +17°C° 0.2 mm 3 mps 730 mmHg 61%
    03:00 +17°C° 0.2 mm 4 mps 730 mmHg 61%
    04:00 +17°C° 0.1 mm 3 mps 729 mmHg 62%
    05:00 +17°C° 0.1 mm 3 mps 729 mmHg 62%
    06:00 +17°C° 0.1 mm 3 mps 729 mmHg 62%
    07:00 +18°C° 0 mm 4 mps 729 mmHg 59%
    08:00 +18°C° 0 mm 4 mps 729 mmHg 57%
    09:00 +19°C° 0 mm 4 mps 729 mmHg 54%
    10:00 +20°C° 0 mm 5 mps 729 mmHg 49%
    11:00 +21°C° 0 mm 5 mps 730 mmHg 45%
    12:00 +22°C° 0 mm 6 mps 730 mmHg 41%
    13:00 +22°C° 0 mm 5 mps 730 mmHg 39%
    14:00 +23°C° 0 mm 5 mps 730 mmHg 37%
    15:00 +23°C° 0 mm 5 mps 730 mmHg 35%
    16:00 +21°C° 0 mm 4 mps 731 mmHg 37%
    17:00 +20°C° 0 mm 4 mps 731 mmHg 39%
    18:00 +19°C° 0 mm 3 mps 732 mmHg 41%
    19:00 +18°C° 0 mm 3 mps 732 mmHg 42%
    20:00 +18°C° 0 mm 3 mps 732 mmHg 43%
    21:00 +18°C° 0 mm 3 mps 732 mmHg 44%
    22:00 +17°C° 0 mm 2 mps 732 mmHg 46%
    23:00 +17°C° 0 mm 2 mps 732 mmHg 47%

    30 October, Monday

    Time Temperature Precipitation Wind Pressure Humidity
    00:00 +17°C° 0 mm 2 mps 732 mmHg 48%
    01:00 +16°C° 0 mm 2 mps 732 mmHg 49%
    02:00 +16°C° 0 mm 2 mps 732 mmHg 50%
    03:00 +16°C° 0 mm 2 mps 732 mmHg 51%
    04:00 +15°C° 0 mm 2 mps 732 mmHg 51%
    05:00 +15°C° 0 mm 2 mps 732 mmHg 52%
    06:00 +15°C° 0 mm 2 mps 731 mmHg 52%
    07:00 +16°C° 0 mm 1 mps 731 mmHg 48%
    08:00 +19°C° 0 mm 1 mps 731 mmHg 44%
    09:00 +20°C° 0 mm 1 mps 731 mmHg 40%
    10:00 +21°C° 0 mm 2 mps 730 mmHg 37%
    11:00 +22°C° 0 mm 3 mps 730 mmHg 34%
    12:00 +24°C° 0 mm 3 mps 729 mmHg 31%
    13:00 +23°C° 0 mm 4 mps 729 mmHg 30%
    14:00 +25°C° 0 mm 4 mps 728 mmHg 30%
    15:00 +25°C° 0 mm 5 mps 728 mmHg 29%
    16:00 +22°C° 0 mm 4 mps 728 mmHg 33%
    17:00 +21°C° 0 mm 4 mps 728 mmHg 36%
    18:00 +20°C° 0 mm 3 mps 728 mmHg 39%
    19:00 +19°C° 0 mm 3 mps 728 mmHg 39%
    20:00 +19°C° 0 mm 3 mps 728 mmHg 40%
    21:00 +19°C° 0 mm 3 mps 728 mmHg 40%
    22:00 +19°C° 0 mm 4 mps 728 mmHg 41%
    23:00 +19°C° 0 mm 4 mps 728 mmHg 41%
    Show more